contact:dominique.lefevre@mio.osupytheas.fr, maurice.libes@osupytheas.fr
Project:EMSO Ligure-ouest http://www.emso-fr.org/EMSO-France
Sensor Aquadopp, line 04 Serial AQD8517 
DOI : "https://doi.org/10.17882/74513; https://doi.org/10.17882/83244" 
Title:EMSO Ligure Ouest : Data ligne ALBATROSS capteur AQUADOPP - deploiement 2021
Id,Date,Profondeur,Latitude,Longitude,X_East,Y_North,Z_Up,Amplitude_X,Amplitude_Y,Amplitude_Z,Batterie,SoundSpeed,Heading,Pitch,Roll,Pressure,Temperature,Speed,Direction
, , m, degrees North, degrees East, m.s-1, m.s-1,m.s-1, 1, 1, 1, Volt, m.s-1, degree, degree, degree, dbar, degree_C, m.s-1, degree
04,2021-08-17T21:30:00,1000.0,42.79,6.0312,0.018,-0.003,0.005,62.0,63.0,61.0,13.1,1504.7,155.3,-0.4,-0.3,967.863,13.3,0.018,99.5
04,2021-08-17T22:00:00,1000.0,42.79,6.0312,0.012,-0.018,-0.005,60.0,67.0,60.0,13.1,1504.7,248.6,-0.4,-0.3,967.835,13.3,0.021,146.3
04,2021-08-17T22:30:00,1000.0,42.79,6.0312,-0.001,-0.01,0.002,64.0,65.0,64.0,13.1,1504.7,231.1,-0.4,-0.3,967.824,13.3,0.01,185.7
04,2021-08-17T23:00:00,1000.0,42.79,6.0312,-0.004,-0.018,0.004,63.0,65.0,61.0,13.1,1504.7,207.9,-0.4,-0.3,967.835,13.3,0.018,192.5
04,2021-08-17T23:30:00,1000.0,42.79,6.0312,-0.003,-0.015,0.006,63.0,65.0,60.0,13.0,1504.7,197.1,-0.4,-0.3,967.836,13.3,0.015,191.3
04,2021-08-18T00:00:00,1000.0,42.79,6.0312,0.015,-0.016,-0.003,62.0,67.0,62.0,13.1,1504.8,185.2,-0.4,-0.3,967.869,13.31,0.021,136.9
04,2021-08-18T00:30:00,1000.0,42.79,6.0312,0.021,-0.025,-0.002,62.0,63.0,61.0,13.1,1504.8,188.0,-0.4,-0.3,967.856,13.31,0.032,140.0
04,2021-08-18T01:00:00,1000.0,42.79,6.0312,0.008,-0.02,-0.012,62.0,66.0,62.0,13.1,1504.8,193.2,-0.5,-0.3,967.871,13.32,0.021,158.2
04,2021-08-18T01:30:00,1000.0,42.79,6.0312,0.008,-0.023,-0.012,62.0,65.0,62.0,13.1,1504.8,192.2,-0.5,-0.3,967.873,13.32,0.024,160.8
04,2021-08-18T02:00:00,1000.0,42.79,6.0312,0.019,-0.037,0.007,63.0,64.0,61.0,13.1,1504.8,198.7,-0.5,-0.4,967.869,13.33,0.041,152.8
04,2021-08-18T02:30:00,1000.0,42.79,6.0312,0.004,-0.035,0.002,61.0,63.0,61.0,13.1,1504.9,206.8,-0.5,-0.3,967.909,13.34,0.035,173.5
04,2021-08-18T03:00:00,1000.0,42.79,6.0312,0.005,-0.038,-0.002,63.0,65.0,61.0,13.1,1504.8,216.7,-0.5,-0.3,967.862,13.33,0.038,172.5
04,2021-08-18T03:30:00,1000.0,42.79,6.0312,-0.012,-0.042,-0.001,62.0,63.0,61.0,13.1,1504.8,225.0,-0.5,-0.4,967.89,13.33,0.043,195.9
04,2021-08-18T04:00:00,1000.0,42.79,6.0312,-0.018,-0.034,0.007,62.0,64.0,61.0,13.1,1504.8,231.7,-0.5,-0.4,967.873,13.32,0.038,207.9
04,2021-08-18T04:30:00,1000.0,42.79,6.0312,-0.022,-0.039,0.012,62.0,64.0,60.0,13.0,1504.8,236.9,-0.6,-0.4,967.876,13.32,0.044,209.4
04,2021-08-18T05:00:00,1000.0,42.79,6.0312,-0.029,-0.024,-0.001,63.0,65.0,60.0,13.1,1504.8,241.8,-0.6,-0.4,967.887,13.31,0.037,230.4
04,2021-08-18T05:30:00,1000.0,42.79,6.0312,-0.043,-0.026,0.013,62.0,64.0,61.0,13.1,1504.8,248.8,-0.6,-0.4,967.87,13.32,0.05,238.8
04,2021-08-18T06:00:00,1000.0,42.79,6.0312,-0.023,-0.027,0.01,63.0,65.0,64.0,13.1,1504.8,251.7,-0.6,-0.4,967.833,13.31,0.035,220.4
04,2021-08-18T06:30:00,1000.0,42.79,6.0312,-0.042,-0.021,0.005,63.0,65.0,61.0,13.1,1504.8,257.3,-0.6,-0.4,967.854,13.31,0.046,243.4
04,2021-08-18T07:00:00,1000.0,42.79,6.0312,-0.038,-0.005,0.005,67.0,65.0,61.0,13.0,1504.7,262.2,-0.6,-0.4,967.836,13.29,0.038,262.5
04,2021-08-18T07:30:00,1000.0,42.79,6.0312,-0.039,0.008,-0.001,62.0,65.0,60.0,13.1,1504.7,265.3,-0.6,-0.4,967.843,13.3,0.039,281.6
04,2021-08-18T08:00:00,1000.0,42.79,6.0312,-0.057,0.009,0.011,62.0,65.0,60.0,13.1,1504.7,268.0,-0.6,-0.4,967.813,13.29,0.057,279.0
04,2021-08-18T08:30:00,1000.0,42.79,6.0312,-0.042,0.027,-0.003,62.0,65.0,62.0,13.0,1504.7,268.7,-0.6,-0.4,967.805,13.29,0.049,302.7
04,2021-08-18T09:00:00,1000.0,42.79,6.0312,-0.034,0.013,0.014,62.0,63.0,60.0,13.1,1504.7,265.3,-0.6,-0.4,967.801,13.29,0.036,290.9
04,2021-08-18T09:30:00,1000.0,42.79,6.0312,-0.037,0.023,-0.006,60.0,65.0,62.0,13.0,1504.7,274.6,-0.6,-0.4,967.774,13.3,0.043,301.9
04,2021-08-18T10:00:00,1000.0,42.79,6.0312,-0.035,0.022,0.004,60.0,61.0,58.0,13.1,1504.7,274.5,-0.6,-0.4,967.779,13.3,0.041,302.2
04,2021-08-18T10:30:00,1000.0,42.79,6.0312,-0.014,0.028,0.016,60.0,62.0,60.0,13.0,1504.7,279.2,-0.6,-0.4,967.777,13.29,0.031,333.4
04,2021-08-18T11:00:00,1000.0,42.79,6.0312,-0.007,0.023,-0.004,61.0,64.0,59.0,13.1,1504.7,275.5,-0.6,-0.4,967.802,13.29,0.024,343.1
04,2021-08-18T11:30:00,1000.0,42.79,6.0312,-0.017,0.013,0.001,60.0,62.0,60.0,13.1,1504.7,277.1,-0.6,-0.4,967.805,13.3,0.021,307.4
04,2021-08-18T12:00:00,1000.0,42.79,6.0312,-0.003,0.005,0.011,60.0,62.0,58.0,13.0,1504.7,278.8,-0.6,-0.4,967.817,13.3,0.005,329.0
04,2021-08-18T12:30:00,1000.0,42.79,6.0312,0.003,0.013,-0.003,60.0,60.0,57.0,13.1,1504.7,282.3,-0.6,-0.4,967.83,13.3,0.013,13.0
04,2021-08-18T13:00:00,1000.0,42.79,6.0312,0.003,0.011,0.009,61.0,64.0,61.0,13.1,1504.7,285.2,-0.6,-0.4,967.836,13.3,0.011,15.3
04,2021-08-18T13:30:00,1000.0,42.79,6.0312,-0.007,0.002,0.017,60.0,62.0,58.0,13.1,1504.7,283.8,-0.6,-0.4,967.857,13.3,0.007,285.9
04,2021-08-18T14:00:00,1000.0,42.79,6.0312,-0.002,0.007,0.019,58.0,62.0,61.0,13.0,1504.7,284.7,-0.6,-0.4,967.91,13.3,0.007,344.1
04,2021-08-18T14:30:00,1000.0,42.79,6.0312,-0.008,-0.004,0.011,60.0,63.0,57.0,13.1,1504.7,280.7,-0.5,-0.4,967.908,13.3,0.008,243.4
04,2021-08-18T15:00:00,1000.0,42.79,6.0312,-0.001,0.004,0.004,58.0,61.0,56.0,13.1,1504.7,277.0,-0.5,-0.4,967.892,13.29,0.004,346.0
04,2021-08-18T15:30:00,1000.0,42.79,6.0312,-0.001,0.001,0.0,59.0,61.0,58.0,13.1,1504.7,274.4,-0.5,-0.3,967.955,13.29,0.001,315.0
04,2021-08-18T16:00:00,1000.0,42.79,6.0312,-0.005,-0.002,-0.003,61.0,62.0,58.0,13.1,1504.7,269.4,-0.5,-0.3,967.939,13.3,0.005,248.2
04,2021-08-18T16:30:00,1000.0,42.79,6.0312,-0.012,-0.005,-0.004,59.0,61.0,56.0,13.1,1504.7,259.0,-0.5,-0.4,967.943,13.3,0.013,247.4
04,2021-08-18T17:00:00,1000.0,42.79,6.0312,-0.02,-0.018,-0.003,60.0,62.0,59.0,13.1,1504.8,258.8,-0.5,-0.4,967.944,13.31,0.026,228.0
04,2021-08-18T17:30:00,1000.0,42.79,6.0312,-0.023,-0.015,-0.007,59.0,63.0,59.0,13.1,1504.7,263.7,-0.5,-0.4,967.92,13.3,0.027,236.9
04,2021-08-18T18:00:00,1000.0,42.79,6.0312,-0.038,-0.01,-0.005,61.0,60.0,59.0,13.0,1504.8,263.0,-0.5,-0.4,967.937,13.31,0.039,255.3
04,2021-08-18T18:30:00,1000.0,42.79,6.0312,-0.039,-0.014,-0.007,60.0,59.0,59.0,13.1,1504.7,264.0,-0.5,-0.4,967.924,13.3,0.041,250.3
04,2021-08-18T19:00:00,1000.0,42.79,6.0312,-0.049,0.0,-0.003,60.0,60.0,59.0,13.1,1504.7,270.6,-0.5,-0.4,967.936,13.3,0.049,270.0
04,2021-08-18T19:30:00,1000.0,42.79,6.0312,-0.041,-0.002,0.007,58.0,60.0,58.0,13.0,1504.7,273.4,-0.5,-0.4,967.916,13.3,0.041,267.2
04,2021-08-18T20:00:00,1000.0,42.79,6.0312,-0.038,0.025,0.002,61.0,60.0,58.0,13.0,1504.7,277.7,-0.5,-0.4,967.945,13.28,0.045,303.3
04,2021-08-18T20:30:00,1000.0,42.79,6.0312,-0.041,0.016,0.009,60.0,64.0,59.0,13.0,1504.7,281.8,-0.5,-0.5,967.922,13.29,0.044,291.3
04,2021-08-18T21:00:00,1000.0,42.79,6.0312,-0.052,0.023,0.01,61.0,62.0,58.0,13.0,1504.7,274.0,-0.6,-0.5,967.893,13.29,0.056,293.9
